星链-3853 (STARLINK-3853 )

导读 | 星芒AI

STARLINK-3853 是 SpaceX Starlink 卫星互联网项目中的一颗低轨卫星,属于第 11 批次发射的 Starlink 卫星群。该卫星采用先进的平板设计,配备激光通信和相控阵天线,旨在为全球用户提供高速、低延迟的互联网服务。它运行在约 550 公里的近地轨道,支持 Starlink 网络的扩展与优化,提升偏远地区的网络覆盖能力。

基本信息
目录编号:
52359
目录名称:
STARLINK-3853
国际标识:
2022-045AE
轨道中心:
EARTH
卫星名称:
星链-3853
卫星全名:
星链-3853 (STARLINK-3853 )
卫星状态:
在轨 (已飞行1285 天)
发射日期:
2022-04-29 UTC
国别 :
美国 (US)
星等 :
--
轨道信息
数据来源 国际轨道数据
星历时间: 2025-11-04T22:49:19+0800
6小时前
查看轨道信息
半长轴: 6917.883km
偏心率: 0.0001212
轨道倾角: 53.219°
近地点辐角 83.291°
升交点赤经 40.600°
平近点角 276.822°
近地点: 538.909km
远地点: 540.587km
周期: 95.438分钟
每日圈数: 15.088394
详细信息
固有亮度:
5
最大亮度:
2.5
卫星平台:
Starlink v1.5
覆盖范围:
全球
运营商:
太空探索技术公司
运营商所在国:
美国
制造商(研发单位):
太空探索技术公司
制造商所在国:
美国
使用方式:
暂无
卫星简介
星链(Starlink)计划是由太空探索技术公司(SpaceX)提出的一个巨型低轨卫星互联网星座项目,计划在2019年至2024年间在太空搭建由约1.2万颗卫星组成的“星链”网络,其中1584颗将部署在地球上空550千米处的近地轨道,并从2020年开始工作。该卫星仍在工作。
2D轨道图
3D轨道图
轨道高度分析图
轨道倾角分析图
轨道综合分析图
查看轨道综合分析图